Veribest, TX

11:06 AM CST on February 10, 2016 (GMT -0600)
San Angelo Regional-Mathis

Weather History for KSJT - November, 2013

Change the Weather History Date:

Wednesday, November 6, 2013

  Actual Average Record
Temperature  
Mean Temperature 51 °F 59 °F  
Max Temperature 64 °F 72 °F 87 °F (1989)
Min Temperature 37 °F 46 °F 24 °F (1959)
Degree Days  
Heating Degree Days 14 7  
Month to date heating degree days 44 38  
Since 1 July heating degree days 126 129  
Cooling Degree Days 0 1  
Month to date cooling degree days 2 7  
Year to date cooling degree days 2853 2491  
Moisture  
Dew Point 42 °F    
Average Humidity 64    
Maximum Humidity 97    
Minimum Humidity 30    
Precipitation  
Precipitation 0.15 in 0.05 in 1.10 in (1996)
Month to date precipitation 0.20 0.33  
Year to date precipitation 18.04 19.59  
Snow  
Snow 0.00 in 0.00 in 0.00 in (2002)
Month to date snowfall 0.0 0.0  
Since 1 July snowfall 0.0 0.0  
Snow Depth 0.00 in    
Sea Level Pressure  
Sea Level Pressure 30.22 in    
Wind  
Wind Speed 9 mph (North)    
Max Wind Speed 23 mph    
Max Gust Speed 29 mph    
Visibility 10 miles    
Events Rain    
T = Trace of Precipitation, MM = Missing Value Source: NWS Daily Summary

Daily Weather History Graph

Daily Weather History Graph

Search for Another Location

Airport or City:

Trip Planner

Search our weather history database for the weather conditions in past years. The results will help you decide how hot, cold, wet, or windy it might be!

Date:

Astronomy

Nov. 06, 2013 Rise Set
Actual Time 7:02 AM CST 5:48 PM CST
Civil Twilight 6:36 AM CST 6:14 PM CST
Nautical Twilight 6:07 AM CST 6:43 PM CST
Astronomical Twilight 5:39 AM CST 7:11 PM CST
Moon 10:13 AM CST (11/6) 8:59 PM CST (11/6)
Length of Visible Light 11h 37m
Length of Day
10h 46m
Waxing Crescent, 14% of the Moon is Illuminated
Nov 6
Waxing Crescent
Nov 9
First Quarter
Nov 17
Full
Nov 25
Last Quarter
Dec 2
New

Hourly Weather History & Observations

Time (CST) Temp. Windchill Dew Point Humidity Pressure Visibility Wind Dir Wind Speed Gust Speed Precip Events Conditions
12:51 AM 60.1 °F - 57.9 °F 93% 29.96 in 10.0 mi West 5.8 mph - N/A   Mostly Cloudy
1:51 AM 60.1 °F - 57.9 °F 93% 29.97 in 10.0 mi WSW 4.6 mph - N/A   Clear
2:51 AM 61.0 °F - 59.0 °F 93% 29.99 in 9.0 mi WNW 3.5 mph - N/A   Overcast
3:01 AM 60.8 °F - 59.0 °F 94% 30.04 in 8.0 mi Calm Calm - N/A   Overcast
3:10 AM 60.8 °F - 59.0 °F 94% 30.04 in 7.0 mi Calm Calm - N/A   Overcast
3:51 AM 57.0 °F - 52.0 °F 83% 30.04 in 10.0 mi NNW 19.6 mph 25.3 mph N/A   Overcast
4:51 AM 51.1 °F - 46.0 °F 83% 30.10 in 5.0 mi North 18.4 mph 25.3 mph 0.11 in Rain Rain
5:31 AM 50.0 °F - 44.6 °F 82% 30.17 in 10.0 mi North 12.7 mph - 0.02 in Rain Light Rain
5:43 AM 50.0 °F - 44.6 °F 82% 30.18 in 10.0 mi North 6.9 mph - 0.03 in Rain Light Rain
5:51 AM 50.0 °F - 46.0 °F 86% 30.17 in 10.0 mi North 8.1 mph - 0.04 in Rain Light Rain
6:03 AM 50.0 °F - 44.6 °F 82% 30.18 in 10.0 mi North 10.4 mph - 0.00 in Rain Light Rain
6:51 AM 48.9 °F - 42.1 °F 77% 30.19 in 10.0 mi North 12.7 mph - 0.00 in   Scattered Clouds
7:51 AM 50.0 °F - 39.9 °F 68% 30.22 in 10.0 mi North 13.8 mph - N/A   Mostly Cloudy
8:51 AM 51.1 °F - 39.0 °F 63% 30.27 in 10.0 mi North 12.7 mph - N/A   Clear
9:51 AM 53.1 °F - 39.0 °F 59% 30.28 in 10.0 mi NNE 11.5 mph - N/A   Mostly Cloudy
10:51 AM 54.0 °F - 37.9 °F 55% 30.30 in 10.0 mi North 13.8 mph - N/A   Scattered Clouds
11:51 AM 57.9 °F - 39.9 °F 51% 30.30 in 10.0 mi NNW 12.7 mph - N/A   Mostly Cloudy
12:51 PM 61.0 °F - 39.0 °F 44% 30.27 in 10.0 mi North 13.8 mph 18.4 mph N/A   Clear
1:51 PM 62.1 °F - 35.1 °F 37% 30.25 in 10.0 mi North 12.7 mph - N/A   Clear
2:51 PM 64.0 °F - 35.1 °F 34% 30.24 in 10.0 mi NE 9.2 mph 16.1 mph N/A   Clear
3:51 PM 64.0 °F - 32.0 °F 30% 30.25 in 10.0 mi North 9.2 mph - N/A   Clear
4:51 PM 62.1 °F - 32.0 °F 32% 30.26 in 10.0 mi NE 9.2 mph - N/A   Clear
5:51 PM 55.9 °F - 36.0 °F 47% 30.28 in 10.0 mi ENE 5.8 mph - N/A   Clear
6:51 PM 52.0 °F - 36.0 °F 54% 30.30 in 10.0 mi NE 6.9 mph - N/A   Clear
7:51 PM 50.0 °F - 35.1 °F 57% 30.33 in 10.0 mi NNE 4.6 mph - N/A   Clear
8:51 PM 46.9 °F - 34.0 °F 61% 30.35 in 10.0 mi NE 3.5 mph - N/A   Clear
9:51 PM 39.9 °F 37.8 °F 35.1 °F 83% 30.38 in 10.0 mi SE 3.5 mph - N/A   Clear
10:51 PM 37.9 °F - 34.0 °F 86% 30.39 in 10.0 mi Calm Calm - N/A   Clear
11:51 PM 37.0 °F - 33.1 °F 86% 30.40 in 10.0 mi Calm Calm - N/A   Clear